Showing default

CSIM, 43793

Orbit data source: Space-Track

CSIM, 43793 is a payload satellite owned by CU-LASP (US) in SSO that was launched on Mon, 03 Dec 2018 UTC via an FALCON 9 launch vehicle from the Air Force Western Test Range (AFWTR). Payloads include a variety of satellites, spacecraft, and rockets equipped with specific instruments for various scientific and technological missions. These include communications satellites like Starlink; space stations such as the ISS; scientific satellites like the Hubble; Earth observation satellites from companies like Planet Labs, Umbra, and HawkEye 360; GPS; miniature CubeSats for education and research; and military/defense satellites.

Loading next visibility...
CSIM details
Identifier
43793, 2018-099AM
Orbit
SSO
Last TLE update8 hours ago
Origin
Flag of USCU-LASP (US)
ManufacturerBlue Canyon
MissionOperational Amateur Astronomy
Bus & MotorCUBESAT 6U, Unknown motor
Mass10 kg wet, 10 kg dry
Launch date (UTC)
2018-12-03 (6 years ago)
Launch vehicle
FALCON 9
Launch site
Air Force Western Test Range (AFWTR)
Object type
Payload
Rocket body
Debris
Shape & HBRBox + 2 Pan, 1.3 m
Radar Cross Section0.143 m², Medium (>0.1 m² and < 1m²)

Expand to show TLE details & history

TLE from 8 hours ago
0 CSIM
1 43793U 18099AM  24361.15784807  .00065568  00000-0  19619-2 0  9997
2 43793  97.5100  66.2099 0008118   1.2146 358.9115 15.34275894332002
Epoch: 2024-12-26T03:47Z
Definitive object data (Epoch: 2024-12-26T03:47:18.073Z)
Latitude0.00001°
Longitude-85.75667°
Altitude460.625 km
Speed7.639 km/s
True Right ascension04h 24m 50s
True Declination0° 00' 00"
Sunlit
Object was in full shadow at TLE epoch
Visualization TLE readout
Latitude25.94756°
Longitude98.26097°
Altitude471.237 km
Speed7.63 km/s
Apparent Right ascension19h 36m 10s
Apparent Declination-9° 02' 35"
Sunlit
Object is in daylight
Visualization observer readout
Local Sidereal Time11:38:27
Azimuth77.492° E
Elevation-28.231°
Doppler factor1
Orbital elements
Apogee altitude465.575 km
Perigee altitude454.472 km
Semi-major axis6,838.16 km
Eccentricity0.0008118
Inclination97.51°
RAAN66.2099°
Arg. of periapsis1.2146°
True anomaly358.90973°
Mean anomaly358.9115°
Eccentric anomaly358.91062°
Mean motion3.83826 °/min
BSTAR0.0019619
Orbital period93.79 mins
Loading maneuver chart data...
Loading historical data...
Loading historical data...
Loading historical data...
Loading historical data...
Loading historical data...
Loading historical data...
Loading historical data...

CSIM Visibility forecast

Observer location: undefined°, undefined

Span
Click to sort rows by Start time (UTC) header in descending order
Start Az.
Max El. time (UTC)
Max El. Az.
Max El.
End time (UTC)
End Az.
5 mins2024-12-26 16:52:57.894Z42.885° NE2024-12-26 16:54:57.894Z86.089° E24.867°2024-12-26 16:57:57.894Z155.026° SSE
5 mins2024-12-27 04:57:57.894Z194.793° SSW2024-12-27 04:59:57.894Z249.402° W34.307°2024-12-27 05:02:57.894Z331.501° NNW
|